RH
47 51 56 64 69 72 81 87 84 75 72 71 50 37 34 30 31 30 36 37 37 37 31 31 31 38 42 46 49 53 57 56 62 61 73 80 76 85 88 93 92 90 96 93 93 97 97 98 97 89 87 90 85 86 96 92 81 78 73 71 72 67 60 55 53 55 58 59 63 63 61 63 63 65 70 67 63 68 69 72 73 72 71 65 62 66 73 68 65 70 70 74 79 79 75 72 73
52 57 64 68 71 79 82 78 79 73 66 65 52 40 32 31 33 30 34 36 38 36 31 32 31 35 35 36 42 55 64 58 60 64 66 69 77 84 84 89 91 93 96 94 93 94 97 97 95 92 91 89 79 79 92 92 82 79 72 69 69 64 58 54 54 55 63 64 62 61 62 69 74 80 82 71 62 64 68 73 71 67 64 59 60 66 73 71 67 68 68 72 75 77 79 77 75
58 60 68 70 72 79 80 74 77 69 62 68 56 37 30 30 32 32 32 32 35 34 32 33 33 34 34 40 45 61 71 58 55 60 60 65 78 85 84 86 86 91 93 94 94 94 95 90 86 86 85 84 83 86 93 91 83 80 75 71 68 64 59 55 56 63 75 75 65 62 68 79 84 85 80 68 59 61 65 69 67 63 61 58 58 62 68 72 74 72 66 68 73 77 82 82 76
55 60 69 70 72 80 84 79 76 64 61 76 60 34 31 28 28 31 28 28 30 33 35 34 37 34 36 48 49 56 63 56 54 57 59 65 77 83 83 85 87 89 89 92 94 95 95 87 79 78 80 80 83 88 87 81 73 75 78 74 70 70 66 64 70 77 83 83 77 72 74 82 85 79 67 61 60 61 63 65 65 63 61 60 56 56 62 69 76 77 70 69 74 80 84 83 73
57 60 68 73 76 78 77 68 64 60 59 70 58 34 28 24 26 27 25 27 26 31 35 36 43 38 37 42 45 53 57 51 51 55 61 69 79 83 83 84 85 87 91 93 92 93 95 92 86 81 79 76 77 82 77 71 66 68 74 75 79 81 79 79 83 85 84 86 85 81 79 83 83 69 58 57 60 62 63 63 62 62 59 57 57 57 62 67 73 74 74 75 75 81 84 82 74
64 60 66 73 74 68 67 66 54 46 43 46 48 36 24 23 24 24 25 24 23 28 32 38 43 44 46 43 42 48 50 48 50 57 63 70 78 83 85 82 77 79 88 91 89 89 89 88 90 87 82 78 79 82 76 72 70 68 70 74 83 86 85 87 86 86 86 87 88 86 82 85 78 57 51 55 60 63 61 61 61 59 56 57 62 64 63 66 73 75 76 79 77 79 82 82 78
61 57 63 68 73 70 68 70 46 28 31 32 39 34 23 25 24 24 25 23 25 27 31 37 37 44 50 47 51 48 44 45 48 57 65 72 77 79 80 78 76 77 82 84 85 88 85 81 82 84 87 87 84 85 82 78 75 71 70 72 78 78 78 85 86 87 89 88 87 85 83 86 71 49 49 53 61 63 57 59 60 56 55 64 70 69 66 66 76 78 78 84 83 79 80 83 82
58 55 56 66 71 63 57 56 32 16 24 24 28 27 22 24 23 23 23 23 27 27 30 33 32 46 50 47 59 54 45 45 48 57 64 71 73 74 72 72 77 78 79 78 83 87 84 84 81 80 87 89 85 89 89 84 82 78 75 75 75 73 74 78 82 83 82 79 78 78 81 84 63 45 47 51 61 60 53 57 57 54 55 65 70 68 68 68 75 74 76 87 87 80 77 79 81
67 59 54 67 63 53 49 38 20 15 19 19 22 22 22 22 22 23 23 23 23 25 29 30 32 50 54 53 61 53 47 48 51 56 58 64 67 69 69 68 72 71 74 78 84 85 82 84 80 79 84 83 82 85 84 79 84 86 85 84 77 75 78 75 74 73 69 70 74 76 79 83 60 42 46 48 57 57 53 56 55 54 53 60 64 67 69 69 69 67 76 86 80 75 73 71 76
70 62 53 62 60 58 48 25 14 18 17 18 21 20 23 22 23 24 22 23 21 26 29 28 35 48 55 59 62 52 47 49 51 53 56 61 62 63 65 66 65 67 73 77 82 80 76 75 72 74 78 81 80 80 81 78 81 85 86 87 80 78 79 73 69 65 68 76 80 80 81 84 61 40 46 49 54 56 54 54 52 51 53 59 63 68 71 70 69 69 76 77 72 71 72 71 73
67 56 47 56 60 54 33 17 14 17 17 18 20 20 22 21 23 23 21 23 23 30 31 31 40 48 57 62 61 52 47 48 48 51 56 61 60 59 61 63 64 67 70 71 77 77 71 70 68 69 72 77 76 77 85 84 82 82 82 83 82 80 75 68 66 64 70 81 83 83 81 78 60 41 45 50 55 55 51 48 46 52 61 66 68 71 71 68 70 73 73 67 67 70 70 70 68
65 50 43 56 60 47 19 13 15 14 18 17 19 19 19 21 22 22 22 23 25 32 32 34 39 45 60 65 59 51 46 47 47 50 56 60 60 59 60 63 64 64 65 68 75 78 74 70 68 68 69 72 72 75 80 79 78 79 81 84 82 77 70 64 65 64 66 78 85 80 72 65 54 47 48 51 54 52 48 44 46 60 71 74 73 72 69 68 69 70 67 60 61 63 63 62 60
56 44 46 55 52 48 23 12 16 15 17 16 18 17 17 21 21 21 21 20 25 35 35 34 36 42 58 61 53 47 44 44 47 51 55 58 60 62 61 61 61 60 63 68 73 78 78 74 72 70 69 71 71 73 72 71 73 74 78 84 81 70 68 66 64 66 65 75 81 74 68 60 51 52 53 53 53 50 48 47 55 70 77 77 74 71 68 67 66 65 64 58 56 57 56 55 54
48 42 50 55 46 44 25 12 16 15 16 15 15 15 15 19 20 20 19 19 27 35 34 32 34 43 55 57 53 46 43 44 48 54 56 57 59 60 61 61 59 58 61 65 69 75 76 75 77 73 70 76 74 72 74 74 74 73 73 75 72 65 68 72 70 71 73 79 80 76 72 60 51 54 56 54 52 51 50 53 64 75 77 75 73 70 68 64 62 64 64 57 53 52 52 54 54
43 43 45 46 41 35 20 15 16 14 15 13 13 15 15 17 18 19 18 21 31 32 30 31 34 42 50 53 54 47 44 46 48 56 57 56 58 58 60 61 59 59 59 62 67 72 71 71 77 74 73 80 77 75 76 73 71 69 67 66 65 67 70 76 80 78 81 84 78 72 65 56 53 55 57 54 52 52 59 70 72 71 73 71 68 67 66 62 60 62 60 53 49 51 55 61 61
34 49 56 45 40 31 17 17 15 15 16 12 13 13 14 16 15 18 17 20 28 28 30 33 32 36 39 42 46 42 44 48 50 55 55 55 58 57 59 60 60 60 60 63 65 69 68 69 77 78 78 83 80 79 77 70 68 65 64 65 66 70 71 75 82 83 81 75 66 63 58 56 60 61 59 58 59 60 65 76 72 66 69 67 64 64 63 60 58 57 52 48 51 57 64 69 68
29 51 63 47 39 29 16 17 16 16 15 12 13 11 15 17 15 17 16 17 22 25 29 30 28 28 30 36 40 41 44 49 51 53 54 55 56 57 61 63 63 63 63 63 65 68 68 71 78 80 82 82 78 81 80 71 67 65 65 68 70 71 71 70 75 83 79 66 61 60 59 66 75 73 68 71 74 71 70 71 65 61 65 65 62 60 59 56 52 49 46 50 60 68 71 70 68
33 45 48 39 32 22 15 18 16 15 14 13 14 12 15 17 16 16 16 17 19 23 25 25 26 26 28 36 40 42 44 48 50 52 54 55 55 56 61 64 65 66 65 65 67 67 67 73 77 77 79 79 75 79 83 76 67 67 68 67 70 69 68 66 65 78 81 71 62 59 64 74 82 80 75 80 80 75 75 69 63 64 68 65 61 60 56 51 46 43 47 55 63 70 71 66 66
31 36 35 32 25 17 14 15 14 14 15 14 14 13 14 16 14 15 17 19 19 23 25 24 29 29 30 37 39 41 44 47 49 51 52 53 55 56 57 60 64 66 65 66 68 66 67 70 72 72 74 77 77 79 83 80 72 75 75 70 71 70 69 66 66 76 82 78 70 67 74 76 80 80 75 80 78 71 69 62 64 72 75 72 67 65 58 48 45 45 51 57 59 65 67 64 65
24 28 32 28 21 20 16 12 14 14 14 14 14 13 13 13 12 14 18 18 19 24 24 25 33 34 33 36 39 41 43 45 47 49 50 51 54 55 56 57 59 64 62 61 64 65 66 68 68 68 72 78 79 80 81 80 80 82 83 79 78 79 78 74 74 77 77 77 77 76 77 76 79 77 69 72 72 67 69 69 70 72 74 77 78 79 69 55 54 58 60 60 61 64 63 62 65
20 22 28 24 19 22 19 12 14 14 14 14 14 14 12 11 11 13 16 17 19 22 21 25 34 37 34 36 38 39 42 44 46 47 48 49 51 53 55 55 55 60 60 58 60 62 63 65 65 67 74 79 79 76 74 76 79 78 79 79 77 80 80 77 77 76 73 75 78 76 75 75 76 74 70 69 69 69 73 75 73 72 73 74 79 86 83 73 66 68 70 67 66 64 63 65 67
17 19 19 19 17 21 19 12 12 14 14 15 14 14 12 11 11 12 15 16 17 18 19 23 30 35 34 35 36 37 41 43 44 45 46 46 47 49 52 53 52 56 57 56 60 62 61 62 63 69 76 77 76 72 68 71 75 73 73 73 70 73 75 74 74 74 74 77 79 76 72 72 72 73 73 69 72 73 72 73 71 72 73 68 70 74 78 83 76 69 69 68 67 63 63 66 68
16 18 16 17 17 19 18 12 12 13 14 16 16 14 11 11 11 12 14 14 14 15 17 21 27 31 33 34 36 37 40 42 42 42 43 43 44 47 48 50 51 53 54 54 59 62 61 62 63 69 75 75 74 69 68 72 74 70 69 70 67 68 71 70 69 72 74 75 78 73 68 70 70 69 69 66 70 71 69 70 66 65 68 64 66 67 69 79 77 69 66 66 67 65 64 66 67
12 16 18 18 16 19 18 12 11 12 13 15 15 14 13 13 12 12 13 12 12 13 15 20 24 28 31 34 35 37 39 40 40 40 40 40 41 44 45 46 48 50 51 52 57 60 59 61 64 67 73 76 75 70 70 72 71 66 64 68 67 65 68 68 65 68 70 69 72 70 66 68 68 65 66 64 65 69 69 67 65 66 70 65 64 68 68 69 69 67 65 65 67 66 66 66 67
9 11 16 16 14 16 14 10 10 11 13 14 15 16 15 13 13 12 12 11 11 13 16 20 24 27 31 33 35 36 38 36 35 37 37 37 39 41 42 43 45 47 48 49 53 57 56 59 63 66 72 76 75 72 71 71 68 63 62 64 64 65 67 66 64 65 66 67 70 70 67 65 63 63 64 62 62 69 69 67 68 69 72 71 67 67 66 63 64 65 67 67 67 67 67 67 69
8 8 11 13 13 12 11 10 10 10 12 14 16 17 16 14 14 13 12 11 11 13 17 21 24 28 30 31 32 35 36 34 34 36 35 35 37 40 42 42 44 45 46 48 50 54 56 59 63 64 69 72 72 72 70 69 66 62 62 63 62 65 65 62 62 62 63 65 67 69 70 68 63 63 68 67 63 66 67 66 68 68 70 73 72 70 65 63 63 64 69 70 66 65 67 67 68
7 7 9 11 12 11 11 10 9 9 11 14 16 17 16 14 14 15 12 10 11 14 18 21 24 27 29 29 30 35 35 32 34 36 35 35 36 40 41 41 44 45 47 48 48 52 55 57 59 61 65 66 67 68 66 65 65 63 62 64 64 66 66 63 62 62 61 61 65 69 70 71 68 67 74 72 64 64 64 62 65 65 66 69 74 75 68 65 66 65 71 73 68 67 67 66 63
6 7 9 10 11 11 11 10 8 9 11 13 14 15 16 15 14 14 13 11 11 15 19 22 24 27 30 29 31 36 36 33 35 37 37 37 36 39 41 42 45 46 48 48 48 50 53 54 55 57 62 64 64 62 61 62 64 64 62 65 68 68 68 65 63 61 60 63 67 68 68 72 73 73 76 70 65 69 68 64 66 64 63 68 74 77 74 69 68 68 71 73 70 68 66 61 58
6 7 9 10 11 12 11 9 8 9 12 12 13 17 19 17 15 14 14 11 11 15 18 22 24 26 29 29 31 36 35 33 35 37 39 39 38 40 42 44 45 47 50 49 49 50 51 52 53 57 60 63 63 59 60 61 64 67 67 67 68 68 69 66 62 60 61 65 66 66 66 70 71 74 80 73 69 75 72 66 68 64 62 69 74 76 77 75 72 70 70 70 68 66 62 58 56
7 7 7 9 11 12 10 9 9 10 11 11 13 20 22 17 14 14 14 11 12 16 18 21 23 25 28 29 32 35 34 33 34 36 39 40 40 40 42 45 45 48 50 50 51 51 51 50 51 56 59 63 65 60 59 61 64 67 69 69 67 66 68 66 63 62 63 65 65 65 65 68 69 75 83 78 74 77 71 66 66 63 62 71 79 77 74 77 78 74 72 70 66 62 59 56 55
8 8 8 9 11 12 9 9 10 10 11 11 13 21 22 17 14 15 15 12 12 17 18 21 23 24 27 29 33 35 33 33 33 34 37 39 41 40 42 45 45 47 49 51 53 52 51 50 50 54 57 62 65 62 60 61 63 65 67 67 65 64 66 65 64 62 64 67 67 67 68 68 70 72 76 74 74 77 71 63 59 58 64 72 77 74 71 75 76 75 76 72 65 63 59 56 54
7 9 10 9 10 11 9 9 10 10 11 11 13 20 21 17 15 14 16 14 12 16 18 20 22 23 25 29 34 35 34 33 32 33 35 37 39 39 41 44 46 47 48 51 53 53 53 51 51 53 56 60 65 65 62 62 64 64 64 63 61 63 64 64 63 60 63 65 65 68 69 70 70 69 70 71 72 75 71 62 56 56 66 74 73 70 71 73 72 73 77 73 67 65 62 57 53
8 10 11 9 9 10 11 10 9 10 12 12 13 18 19 19 17 14 16 15 13 16 17 18 21 22 24 29 33 34 34 34 33 34 34 36 37 37 40 43 47 48 48 51 53 54 54 54 55 55 56 59 64 69 66 65 65 64 63 61 59 60 62 62 61 61 62 61 63 68 69 71 73 69 70 73 74 74 70 61 56 58 69 77 74 71 72 72 72 72 74 72 69 68 64 57 51
8 9 10 9 9 10 11 11 9 9 12 13 14 16 18 19 18 14 15 16 14 16 17 16 18 20 24 28 32 34 35 36 35 35 35 36 37 37 40 42 46 48 49 50 53 55 55 57 59 58 58 60 64 70 70 68 67 66 64 62 60 59 60 60 60 64 65 62 63 69 72 73 74 72 72 74 75 76 69 59 55 59 69 77 75 74 75 74 74 70 68 67 66 65 60 55 51
9 10 10 10 9 10 11 11 10 10 12 14 14 16 18 17 16 15 15 16 15 16 16 16 16 19 22 26 31 33 35 36 35 35 34 36 37 38 38 41 45 47 48 50 53 56 58 58 61 61 61 61 65 69 71 71 69 67 65 64 63 61 61 61 62 65 66 65 64 68 74 76 76 78 77 74 76 79 71 62 61 62 69 75 78 79 77 76 74 68 64 62 61 58 55 55 54
9 9 9 10 10 9 10 10 10 10 12 14 14 16 18 17 17 18 16 15 16 17 17 17 16 17 20 24 27 29 34 35 34 34 33 35 37 38 38 40 44 45 47 50 52 55 59 60 61 63 63 61 65 70 72 73 71 68 66 65 64 64 64 63 65 67 64 65 65 66 72 76 78 79 78 75 76 78 69 64 69 73 76 78 79 81 79 74 70 66 63 60 59 57 54 55 55
8 8 9 10 9 9 9 10 9 9 11 14 14 15 18 20 19 19 17 16 17 17 18 18 17 18 20 22 24 27 32 33 32 33 33 35 37 37 39 40 42 45 48 51 52 54 59 61 61 63 66 64 65 70 74 74 72 69 66 65 64 64 65 65 68 69 65 63 62 64 69 74 78 79 78 75 75 77 71 67 74 80 83 82 80 79 77 71 66 63 61 59 60 59 53 50 54
8 8 9 9 9 9 9 9 8 8 11 13 13 14 19 23 21 18 17 18 17 17 18 19 19 19 19 22 24 26 29 31 32 34 34 35 36 37 40 41 42 45 47 50 51 54 57 59 61 64 67 68 66 67 71 73 71 68 65 64 63 61 64 68 72 70 66 62 58 59 64 71 77 79 79 78 77 80 77 75 79 83 85 85 81 77 73 67 65 62 58 57 58 59 55 49 51
8 9 9 9 9 9 9 8 8 9 11 12 13 14 17 21 20 17 17 18 17 17 17 19 20 21 21 21 23 25 27 31 33 35 34 35 37 39 41 42 43 44 46 48 50 53 56 59 61 65 68 71 69 66 68 71 70 67 65 64 62 60 63 70 72 67 63 61 57 58 63 69 76 76 78 82 81 81 83 84 86 87 86 82 78 75 70 66 64 60 57 57 55 57 56 53 53
8 8 8 9 8 9 10 8 8 9 10 11 12 14 15 17 20 19 17 16 16 16 16 17 18 20 21 20 21 23 26 30 34 34 34 35 37 39 42 43 43 44 46 48 50 53 57 60 63 66 68 70 70 67 67 70 70 68 66 65 61 59 62 66 64 59 59 60 58 60 65 70 75 76 78 82 82 82 86 87 85 83 81 78 74 71 68 64 61 59 58 59 58 59 58 57 58
9 8 8 9 8 9 9 9 9 9 11 10 11 16 16 16 21 22 21 18 16 16 17 18 18 18 19 19 21 23 24 28 32 33 35 36 37 39 42 44 44 45 47 48 51 54 57 62 64 66 66 68 69 67 66 68 72 72 69 66 61 58 60 59 57 56 60 64 65 65 69 73 76 79 77 77 81 84 83 80 78 78 76 75 73 70 65 58 54 56 61 63 62 64 65 61 59
9 7 7 7 7 8 8 9 9 11 14 11 11 20 22 17 18 20 22 21 18 18 19 19 20 20 19 19 21 22 23 26 29 31 34 35 37 40 43 45 45 46 47 48 51 54 58 62 65 66 66 66 66 65 64 68 72 73 71 69 65 62 62 63 62 62 65 71 71 67 69 74 77 79 77 75 80 82 78 75 74 73 72 71 70 66 59 53 54 58 61 61 61 65 67 62 57
9 8 7 7 7 8 8 9 10 12 15 12 12 19 23 20 18 17 20 22 20 20 20 19 21 22 19 19 20 21 22 24 27 29 31 34 36 39 41 44 46 46 47 48 51 54 58 62 66 67 67 65 65 65 65 68 71 72 71 71 68 65 66 70 69 65 65 67 66 63 67 74 78 79 77 76 79 79 76 74 71 67 66 68 68 62 56 54 59 61 60 60 64 67 64 61 62
8 7 6 7 7 7 8 8 10 11 12 12 12 16 22 23 20 18 19 22 22 20 20 20 21 21 19 18 19 21 23 24 26 28 29 32 36 37 40 43 45 45 46 48 50 53 57 61 65 68 68 67 66 67 68 70 71 71 70 72 71 67 68 70 69 65 62 59 59 62 68 75 79 79 77 76 76 76 75 73 69 64 63 65 64 61 58 58 61 62 61 62 64 64 62 63 66
7 6 6 6 6 7 7 7 10 10 11 15 14 15 24 25 20 18 18 22 27 24 20 20 22 22 20 19 18 19 22 23 24 26 27 31 34 36 38 42 45 44 44 46 49 52 57 61 65 68 69 69 68 68 69 71 71 70 72 74 73 70 68 66 64 63 59 56 61 67 68 73 77 76 75 76 75 74 73 71 68 63 60 60 57 56 57 58 62 62 59 62 65 64 64 65 63
6 5 5 5 5 6 7 8 9 10 13 17 13 14 23 26 20 19 20 23 28 25 20 21 22 22 21 20 19 18 21 24 23 24 26 30 33 35 36 39 43 44 42 45 47 50 56 61 65 69 70 70 69 68 69 71 71 71 73 75 74 72 69 63 59 58 55 57 68 71 70 73 76 72 72 75 74 72 71 69 65 59 57 57 55 55 55 54 56 56 54 62 66 62 60 59 59
5 5 6 6 6 6 7 8 9 12 16 15 11 11 19 25 22 19 20 21 21 20 21 23 21 19 20 21 19 18 22 25 24 23 26 29 32 34 36 37 41 43 41 42 46 49 54 60 65 69 71 71 69 68 69 70 71 72 73 74 74 72 70 63 57 55 54 59 68 70 70 72 71 70 72 75 72 69 69 65 60 56 54 56 55 55 54 51 50 52 55 58 59 58 57 57 57
5 6 6 7 8 8 9 10 10 14 16 12 10 10 14 23 22 17 16 17 15 16 18 20 20 18 19 22 22 21 22 23 24 25 26 30 37 37 37 37 38 41 41 41 44 47 52 58 64 68 71 71 70 69 68 69 71 72 72 74 75 73 70 64 59 56 56 61 66 68 69 69 66 66 70 72 70 68 66 59 55 55 53 56 56 53 52 50 49 54 56 55 56 59 60 59 57
5 6 7 10 11 11 13 14 13 15 15 11 9 10 13 17 16 13 14 14 13 14 13 14 16 16 18 22 23 23 23 23 26 30 28 33 41 41 38 38 39 41 42 42 43 46 50 55 61 67 70 71 71 69 68 68 70 71 71 73 75 73 69 65 61 58 59 64 67 66 68 68 64 62 64 67 67 67 64 57 55 56 56 56 55 53 53 51 50 56 58 55 58 61 59 58 57
5 5 8 11 12 15 18 16 15 14 12 9 8 10 12 13 12 11 12 12 12 12 12 12 13 16 19 20 19 21 23 24 28 32 31 35 42 42 40 40 40 42 43 43 43 45 48 53 60 65 69 71 70 69 69 68 69 70 71 73 74 72 69 65 62 59 61 67 67 64 67 69 65 61 62 63 63 64 63 57 55 56 56 57 56 55 57 55 54 58 59 56 57 56 55 57 56
4 3 6 10 11 14 16 15 14 13 11 10 10 11 12 13 12 11 10 11 11 11 11 12 14 16 17 17 17 18 21 23 26 29 31 34 39 41 42 41 42 43 43 44 44 46 48 52 59 65 68 71 70 70 71 70 68 68 69 72 72 72 70 66 62 59 63 68 66 63 65 68 66 64 63 60 59 60 58 54 55 56 57 58 58 58 60 60 58 59 60 58 57 54 53 55 56
4 3 6 9 9 10 12 12 10 10 12 13 12 12 11 10 9 8 9 10 10 11 11 11 14 15 15 16 16 16 21 24 26 28 30 33 36 39 41 41 41 42 44 44 44 46 49 51 58 64 67 70 71 71 71 69 67 66 68 71 71 71 70 68 64 60 62 66 66 63 62 65 66 64 63 60 57 56 53 52 55 56 58 60 61 62 62 62 61 60 61 60 58 56 54 54 56
4 4 6 6 5 7 11 12 10 10 14 14 13 12 10 9 9 7 8 10 9 11 11 10 13 15 15 15 14 17 24 28 28 30 32 33 34 37 39 38 37 39 42 43 44 47 49 51 58 63 66 69 71 71 69 67 66 66 67 69 70 71 70 69 66 62 62 63 64 63 61 63 64 63 63 61 58 56 54 53 54 56 59 61 63 65 63 62 62 61 61 60 59 57 56 56 58
4 4 4 4 4 5 9 13 14 12 14 14 12 11 12 13 13 10 9 9 10 11 11 10 12 14 15 13 15 21 25 26 25 27 31 32 33 36 38 36 34 34 37 41 45 47 48 51 57 61 65 69 70 70 68 67 68 67 67 68 69 70 70 68 66 64 64 63 63 63 61 63 63 60 62 62 59 57 55 54 55 56 59 62 65 66 64 62 62 62 61 60 60 59 57 57 60
4 3 3 3 5 7 9 14 16 12 13 16 13 11 13 13 12 10 8 9 10 10 12 11 10 13 14 11 17 23 22 22 23 24 29 32 31 32 33 31 31 32 36 41 45 46 47 49 54 58 62 66 68 68 67 67 68 68 68 68 68 69 69 67 66 65 65 64 64 63 62 64 63 59 61 61 59 58 56 56 57 57 59 62 63 64 63 62 62 61 61 60 60 59 58 57 58
4 3 3 3 5 7 8 11 11 11 15 17 14 13 13 12 10 9 9 11 10 10 13 13 9 10 11 10 18 24 21 22 23 22 27 30 27 26 27 28 30 32 35 40 43 44 43 46 50 53 58 63 66 66 65 66 66 66 68 68 68 69 68 65 64 65 65 65 65 63 63 63 61 60 61 61 59 59 59 59 59 59 61 62 62 62 62 62 61 61 61 61 60 59 57 57 56
5 4 4 4 4 5 6 7 7 10 16 17 15 14 12 10 9 8 10 11 10 9 13 14 10 8 9 9 15 22 22 23 23 20 22 26 26 26 25 26 30 33 34 37 40 41 41 42 46 49 53 59 63 64 65 64 64 65 66 67 67 67 67 65 64 64 65 64 64 64 63 61 59 60 62 62 61 61 62 62 62 62 62 63 62 61 62 63 62 63 62 61 60 58 57 57 56
5 4 4 4 4 5 7 9 8 8 12 14 13 15 12 8 8 9 9 9 8 8 10 12 10 8 10 9 10 19 24 24 22 19 17 21 25 25 24 27 31 33 33 35 37 39 40 40 42 45 50 56 58 60 63 64 64 64 65 66 66 67 67 66 64 64 64 62 63 64 62 60 60 61 62 62 62 62 63 64 63 63 64 63 61 60 62 64 64 64 63 63 61 60 59 59 58
Wind_Speed
14 12 14 14 9 5 4 2 2 2 3 3 2 2 6 8 6 7 8 6 6 8 8 8 10 10 8 9 11 13 13 9 5 3 6 9 20 24 23 24 23 22 20 23 26 25 24 25 25 27 28 25 25 26 22 21 23 22 22 22 22 22 20 20 20 18 17 17 17 17 17 17 18 18 18 17 16 16 16 16 15 16 15 14 14 13 12 10 10 11 12 13 14 14 14 14 14
14 13 13 11 5 2 0 2 2 2 3 1 3 3 5 7 6 7 9 9 9 10 11 11 11 11 11 12 13 15 13 12 13 10 10 19 23 22 23 23 24 23 20 23 26 25 25 25 27 28 29 27 25 25 24 22 23 22 22 22 21 21 20 19 19 18 17 16 16 16 17 17 17 18 18 16 15 15 15 15 15 14 13 12 12 11 11 9 9 10 11 12 12 13 14 14 14
13 12 10 9 3 2 1 2 3 3 0 2 1 2 1 6 9 10 11 13 15 15 12 11 11 9 10 12 13 13 10 12 17 14 13 21 19 19 25 23 24 24 22 23 22 24 24 26 28 29 29 28 26 23 23 23 23 22 22 21 21 20 19 19 19 18 17 16 16 16 17 17 17 17 16 14 14 14 13 14 13 13 12 11 10 10 9 9 9 9 10 11 11 12 13 13 13
11 10 7 4 0 1 1 1 4 4 2 1 0 2 2 8 11 12 12 13 15 14 11 10 10 9 11 14 13 12 11 12 17 15 12 16 18 23 26 25 26 25 25 24 22 23 24 25 26 28 28 27 25 23 22 23 23 22 21 21 20 19 19 19 18 18 17 16 15 16 16 16 16 15 14 13 13 13 12 12 12 12 11 10 9 9 9 9 9 8 9 10 10 11 10 11 12
8 6 5 2 1 0 2 2 5 3 2 2 0 2 6 11 12 12 12 12 12 11 10 10 10 11 13 12 9 9 11 12 16 17 15 18 23 27 27 26 27 26 25 23 23 23 24 26 26 26 26 25 24 22 21 22 22 21 21 21 20 19 19 18 18 18 17 16 15 15 15 16 15 13 12 12 11 11 10 10 11 11 10 9 9 9 9 7 7 6 8 9 9 10 9 9 9
7 4 5 4 1 1 2 5 7 3 7 6 1 2 7 11 10 12 11 12 12 12 13 11 12 14 12 12 10 9 11 13 15 17 20 23 25 27 27 27 27 28 26 23 24 24 26 28 27 26 24 24 23 21 21 20 21 21 21 20 20 19 19 18 17 17 16 16 15 15 15 15 13 11 11 10 10 10 10 10 10 10 9 9 9 9 9 7 5 5 7 8 8 9 9 8 7
7 3 3 3 1 1 4 8 7 2 11 10 4 5 9 10 10 12 11 11 10 13 15 12 14 14 11 10 10 11 14 15 15 18 24 26 26 27 26 25 26 28 26 24 24 24 27 27 27 26 23 23 22 21 21 20 20 21 21 20 19 19 19 18 17 16 15 15 15 14 14 14 11 10 10 9 10 10 10 10 9 9 9 9 10 9 9 8 7 5 5 7 7 8 8 7 6
5 3 1 1 3 4 7 10 4 4 9 11 6 5 9 10 9 10 10 10 9 12 14 13 15 14 12 11 9 11 16 19 21 25 27 27 26 26 25 25 26 26 24 23 24 25 26 25 25 24 22 22 22 21 21 20 20 20 20 19 18 18 17 17 17 15 14 14 14 14 14 12 10 9 9 8 10 10 9 9 8 8 8 10 10 9 9 9 7 6 6 7 6 6 7 7 6
3 1 1 1 5 6 9 7 1 5 7 9 8 7 7 8 8 7 9 10 10 12 13 12 14 14 13 15 12 11 16 22 26 28 27 26 26 24 24 25 25 26 24 23 24 26 26 24 24 23 22 22 21 20 20 19 20 20 19 18 17 16 16 15 15 14 13 13 13 13 13 11 9 8 7 8 9 9 9 8 8 8 9 9 9 9 9 8 8 7 7 6 5 6 7 7 6
2 1 1 2 5 8 9 3 4 5 7 8 8 8 7 6 5 6 8 10 11 12 14 14 15 16 15 15 11 10 17 24 26 26 26 25 24 23 24 24 24 25 24 23 23 25 26 25 24 23 22 21 21 20 19 18 19 20 19 18 15 15 15 14 14 14 14 13 12 12 12 11 8 7 7 7 8 7 7 7 7 8 9 8 8 8 8 8 8 9 8 6 7 9 7 6 6
0 2 2 4 5 8 6 2 5 5 8 8 8 7 7 6 5 6 9 11 12 14 16 14 14 17 15 12 8 11 21 24 24 25 25 24 23 23 23 23 23 24 24 24 23 24 25 24 23 22 22 21 21 20 19 19 18 19 18 17 15 14 13 13 13 14 14 13 12 11 11 10 7 5 6 6 6 5 6 7 7 8 8 8 8 8 8 8 8 9 9 8 9 11 9 8 8
1 2 1 5 7 7 3 3 5 7 8 7 7 7 6 6 7 8 10 11 13 14 14 11 11 14 14 11 8 14 21 21 23 25 23 23 23 22 23 22 22 23 24 24 23 23 24 23 22 21 21 20 20 19 19 19 19 19 18 16 15 14 12 12 13 13 13 12 11 10 9 8 6 4 4 5 4 4 4 6 7 7 8 8 8 8 8 9 9 8 9 9 11 12 11 10 10
1 3 3 5 6 9 6 3 4 6 7 6 7 7 7 6 6 9 10 11 14 13 12 13 12 11 11 11 9 14 18 20 23 24 23 23 24 24 22 21 22 24 24 24 23 22 22 22 21 20 20 19 19 18 17 18 18 18 18 17 15 14 13 13 13 13 12 11 10 9 8 7 5 4 4 4 3 3 4 6 7 7 8 7 7 7 8 9 8 8 8 10 11 12 12 10 10
1 1 2 4 6 11 7 3 3 5 6 8 6 7 9 8 7 7 8 11 14 13 13 16 13 10 12 11 9 10 15 22 24 23 22 22 25 26 24 22 22 24 23 23 23 23 22 20 19 20 19 18 19 18 17 17 16 16 17 16 14 14 14 13 13 12 11 10 9 9 8 6 5 4 4 3 2 2 4 5 6 6 6 7 6 6 7 7 8 8 8 10 11 12 13 12 12
3 1 3 5 8 10 3 2 3 6 7 8 7 5 7 9 10 7 6 11 14 15 14 16 13 9 11 12 10 11 17 24 24 24 23 22 24 24 25 24 22 22 23 23 22 22 21 20 20 20 20 18 19 18 18 17 16 16 16 15 14 14 14 13 12 11 11 11 9 9 7 5 4 3 3 2 1 2 3 4 4 5 5 6 6 5 6 7 7 8 8 9 10 11 13 13 12
4 1 2 3 9 9 1 3 4 5 7 8 7 5 8 9 11 8 7 12 14 16 13 12 12 9 13 13 15 20 26 25 23 25 23 22 24 23 23 22 21 21 21 21 21 21 21 21 21 21 21 20 19 18 18 18 16 16 15 14 14 14 13 13 12 12 11 11 9 8 6 4 4 3 2 2 1 1 2 1 3 4 5 6 5 5 5 6 8 8 9 9 10 10 11 10 11
4 3 2 4 9 9 1 1 5 4 8 10 8 7 10 8 9 8 10 13 13 16 13 11 10 11 14 16 21 26 29 27 24 24 22 21 22 21 21 19 19 20 19 20 19 20 20 21 21 21 21 21 19 18 18 18 17 16 15 14 14 14 13 13 12 12 11 9 9 8 6 4 4 3 2 2 1 1 0 1 3 4 5 5 5 5 5 6 8 8 9 9 9 8 8 8 8
4 2 4 5 8 5 3 2 2 5 7 9 10 9 10 8 9 8 9 12 13 14 12 10 11 12 17 22 27 28 27 27 25 24 22 20 18 19 20 18 18 18 18 18 18 19 20 20 20 20 20 20 19 18 18 18 17 16 15 15 14 13 13 12 12 12 11 9 8 8 7 6 6 5 3 3 3 3 2 1 2 3 4 4 4 5 6 7 8 8 8 8 8 7 6 7 6
6 4 4 5 7 6 2 3 1 3 6 8 9 10 10 9 10 8 10 13 12 13 12 12 15 15 20 25 27 28 27 26 25 24 22 20 18 18 19 19 19 18 19 18 18 19 19 19 19 19 20 20 19 18 18 18 17 16 15 15 14 14 13 13 12 12 11 9 8 7 6 7 7 5 4 4 4 4 4 3 2 3 3 3 3 3 5 6 7 7 6 6 6 6 5 5 4
9 6 3 6 9 10 8 2 3 3 6 8 8 9 10 9 9 8 10 14 11 12 12 12 16 17 20 23 24 27 26 25 24 23 21 20 19 18 18 19 20 19 19 19 19 19 19 19 19 19 19 19 19 18 17 16 17 16 15 15 14 14 14 13 12 12 12 10 10 8 7 7 6 5 4 4 4 4 4 4 4 4 3 3 3 2 1 3 4 5 4 4 5 3 3 3 2
8 7 5 7 7 8 9 4 5 6 6 7 6 7 10 9 7 8 12 12 9 12 13 13 18 19 21 22 24 25 24 23 23 22 20 21 20 19 17 18 19 19 19 19 19 19 19 20 19 20 19 18 18 17 15 15 16 14 14 14 13 14 13 13 12 12 12 11 11 9 9 7 7 6 5 3 3 4 3 3 3 3 3 3 3 5 6 5 3 2 1 1 3 1 2 3 3
7 9 8 4 5 10 10 5 5 7 6 7 6 6 8 9 7 8 12 8 7 11 14 17 19 20 21 22 23 23 22 21 21 21 20 21 20 19 18 18 18 19 19 19 19 19 19 20 19 19 19 18 17 15 15 15 15 14 14 13 13 13 13 12 12 12 12 12 11 9 9 9 8 8 7 4 3 4 4 3 1 3 5 5 4 5 7 9 6 3 2 1 1 2 3 4 5
7 8 9 5 4 13 14 5 6 7 8 8 7 5 7 8 7 7 9 7 8 14 15 18 20 21 23 21 21 21 22 20 20 21 21 21 21 20 20 20 20 19 19 19 19 19 19 20 19 19 18 17 16 15 14 15 15 14 13 14 13 13 13 13 13 13 13 13 11 9 9 10 9 8 7 4 3 4 4 3 3 4 5 4 4 4 4 7 7 3 1 0 1 2 3 4 5
12 9 12 13 11 16 17 7 8 8 8 9 7 6 8 9 7 8 8 2 9 17 15 18 20 21 23 21 21 21 21 21 21 23 22 22 21 21 21 21 21 20 19 20 19 19 20 20 20 19 18 18 16 15 15 14 14 13 14 14 14 13 14 13 12 12 13 12 11 10 9 9 7 6 7 6 4 3 3 3 4 4 4 4 3 4 5 5 5 3 1 1 2 3 4 5 6
14 11 12 12 11 14 14 8 9 9 7 8 9 8 8 8 7 9 9 5 8 16 17 18 20 20 21 20 21 20 20 21 22 23 22 21 21 21 20 20 21 20 20 21 20 20 20 21 20 19 18 18 17 15 15 14 14 14 14 14 13 12 13 13 11 11 11 10 10 10 9 7 5 5 5 4 3 2 2 2 4 3 5 4 2 4 5 2 2 4 3 3 4 5 5 5 5
9 9 9 7 8 10 10 12 10 12 8 9 11 11 9 8 7 8 11 10 8 16 18 18 19 20 19 19 20 19 19 20 21 22 21 21 22 21 20 20 20 20 19 20 20 20 20 20 20 19 19 18 17 16 15 14 14 13 13 13 12 11 11 11 10 10 10 9 9 10 9 7 6 3 1 2 4 4 4 4 5 5 4 2 0 2 4 2 2 3 2 3 5 5 6 6 5
11 11 10 9 10 10 11 14 9 9 10 11 11 11 11 9 8 7 12 13 10 16 18 17 18 18 19 18 18 17 18 20 21 22 20 20 21 20 21 20 19 19 19 19 19 20 21 20 20 20 19 19 17 16 15 14 14 13 12 12 11 11 10 9 8 8 8 7 8 9 9 8 7 5 3 4 6 6 7 6 4 4 3 2 1 2 3 3 2 2 2 2 2 3 5 5 5
13 12 10 10 11 11 13 15 9 7 9 12 12 11 11 10 8 7 13 13 12 17 19 19 18 16 18 18 17 15 14 19 22 22 19 19 20 20 20 20 20 20 19 19 18 20 21 21 20 20 19 19 18 16 16 15 14 14 13 12 11 11 11 10 8 8 8 7 7 8 9 9 8 7 7 8 7 6 7 6 4 3 4 3 2 2 3 4 4 3 3 3 2 3 4 4 4
13 13 10 11 12 12 14 14 7 6 8 13 13 10 10 11 9 9 14 12 13 17 17 18 17 15 16 16 16 14 14 19 21 20 21 21 21 22 21 20 21 20 20 19 18 19 20 20 21 20 19 19 19 17 16 15 14 13 13 12 12 11 11 11 10 9 8 8 8 8 9 10 9 7 8 9 6 5 6 6 5 4 4 3 2 3 4 5 5 4 4 4 4 4 3 3 3
12 15 9 8 11 11 13 12 7 8 10 13 13 8 9 11 9 11 15 13 15 17 16 16 16 15 15 14 15 14 15 17 19 21 23 23 22 22 22 21 21 20 20 20 19 20 20 20 20 20 20 20 20 17 16 16 15 13 13 12 12 12 11 11 10 9 9 8 8 10 10 11 10 8 8 8 6 6 5 6 5 4 4 2 2 3 3 3 4 5 4 5 4 4 3 3 3
10 13 9 7 8 7 11 11 10 10 10 14 13 6 7 12 11 13 14 14 15 16 16 16 15 15 14 14 14 15 15 15 19 23 24 24 23 23 23 22 22 21 21 21 22 21 20 20 19 20 21 21 21 19 17 16 15 14 13 13 12 12 11 10 10 9 9 8 7 9 9 10 10 10 10 9 8 6 5 6 6 4 4 2 2 5 4 1 3 4 4 5 5 4 3 4 4
9 11 9 9 8 6 8 10 11 10 10 13 13 6 6 9 10 14 15 14 15 15 16 16 16 16 15 15 15 14 14 16 21 24 24 25 24 23 24 24 23 22 21 22 23 22 21 20 20 19 20 21 21 20 18 16 15 15 13 13 13 12 11 11 10 9 9 9 9 10 10 10 11 11 10 9 8 6 4 5 5 3 3 3 5 6 4 3 3 4 4 4 4 4 4 6 6
9 9 10 10 11 7 6 10 13 11 9 12 13 7 6 6 9 14 17 14 16 15 16 17 16 17 16 14 14 14 14 15 18 21 25 26 24 24 25 25 25 23 22 23 24 24 22 21 20 19 20 21 21 20 20 17 16 15 14 13 12 12 12 11 10 10 9 9 9 10 11 10 10 9 9 8 8 6 5 5 4 3 3 4 5 4 4 3 3 4 4 3 4 4 6 8 8
8 9 9 10 12 8 6 8 12 13 11 12 14 9 7 7 11 14 18 16 16 15 16 18 15 15 15 14 15 14 14 15 15 19 25 27 25 25 25 26 26 25 23 22 24 25 23 21 21 20 19 20 21 20 20 19 17 16 15 14 13 13 12 11 10 10 11 10 9 9 9 9 8 8 9 9 9 8 6 5 4 3 4 4 4 3 3 2 2 2 2 3 4 5 6 8 8
10 10 9 9 12 10 9 8 10 14 13 12 14 10 7 8 8 10 18 16 16 16 15 16 15 15 15 14 15 15 15 16 15 19 26 27 26 26 25 26 26 26 25 23 24 25 25 22 22 22 20 20 21 20 20 19 17 16 15 14 14 13 13 12 11 11 11 10 9 9 9 8 8 10 11 10 9 9 7 5 3 3 6 6 4 2 1 1 1 1 1 2 4 5 5 5 5
15 12 11 11 11 9 9 10 11 14 14 11 13 11 8 9 7 9 15 15 15 15 15 15 15 15 15 14 14 15 16 16 17 22 26 26 26 26 25 25 27 27 26 25 25 26 26 25 23 23 22 21 20 21 20 19 18 17 16 15 15 15 14 13 12 12 11 10 9 9 9 10 11 11 11 10 10 10 9 6 4 5 7 8 5 1 2 2 2 1 1 2 4 4 4 3 3
19 14 12 14 12 7 8 14 16 15 13 11 13 13 11 12 10 12 13 14 15 16 15 15 15 14 14 15 15 16 16 16 19 23 25 25 26 26 24 24 26 26 26 27 27 26 27 26 25 24 24 22 21 22 22 20 19 18 18 17 16 15 15 14 13 13 12 11 11 11 11 12 12 12 11 11 11 11 9 8 7 8 8 8 4 3 4 4 3 1 1 1 2 2 3 3 2
20 16 12 14 12 8 10 14 17 17 12 11 14 15 13 15 15 14 13 14 15 16 16 15 17 16 14 16 17 16 14 14 18 20 23 26 26 26 25 24 25 26 27 28 28 28 27 27 26 25 25 25 24 23 24 22 20 19 18 17 16 14 15 14 13 13 12 11 12 13 13 12 12 12 12 12 12 11 9 8 9 9 7 6 5 6 4 4 4 2 2 0 0 2 5 3 1
18 14 13 12 9 8 11 12 14 18 10 10 16 14 12 16 16 14 15 15 13 14 16 15 16 15 14 16 16 15 15 14 17 19 21 25 26 27 26 24 26 27 27 28 28 27 27 27 26 25 25 26 26 24 24 24 21 20 18 16 15 13 13 14 13 13 12 12 12 12 12 13 13 13 13 13 12 11 10 9 9 7 6 5 8 7 5 5 5 4 3 2 1 3 6 2 0
15 13 12 11 11 10 9 8 13 18 10 9 13 12 9 11 13 12 13 14 13 14 16 16 15 14 15 17 16 15 16 15 16 19 19 22 25 26 26 24 26 27 27 28 28 28 28 28 27 27 26 26 27 26 25 24 22 20 18 16 14 13 12 13 14 14 12 11 11 11 13 14 13 13 13 13 11 10 10 9 8 7 7 8 9 7 6 6 5 4 3 2 1 3 4 4 2
16 17 14 12 13 14 10 8 9 15 13 10 9 8 8 9 12 12 11 13 14 14 15 15 14 15 15 17 17 16 16 15 16 18 18 19 22 25 26 26 26 27 27 28 30 30 29 29 29 28 27 26 27 28 26 24 22 20 18 16 14 13 12 13 13 13 11 11 11 11 13 13 13 13 13 12 10 9 8 7 8 9 10 10 8 7 6 5 4 3 2 1 2 3 4 1 3
15 19 19 18 17 16 13 11 10 10 10 9 9 7 7 9 13 14 13 14 13 12 14 15 13 13 14 15 16 17 17 15 15 17 19 19 21 25 27 27 27 27 28 29 30 30 29 29 30 29 28 27 27 28 27 25 23 22 20 18 16 14 14 13 12 12 12 12 12 12 13 12 12 12 12 11 9 10 9 9 11 11 10 9 8 6 5 4 4 2 2 2 2 1 3 3 1
11 16 20 23 22 19 15 14 12 9 8 10 11 9 6 8 13 14 15 15 14 13 15 16 14 12 13 13 14 15 16 16 15 16 18 19 21 23 25 28 29 28 28 29 29 29 29 29 30 31 29 28 27 27 28 27 25 23 22 20 18 17 14 14 15 13 12 13 12 12 13 12 11 11 11 12 11 11 11 11 12 10 9 10 9 6 3 4 5 3 2 3 2 1 2 4 4
11 15 20 22 22 22 18 15 12 8 9 11 13 11 8 7 10 13 15 13 13 15 16 16 15 14 15 14 14 15 16 16 15 15 17 19 20 22 25 28 30 29 28 29 29 30 31 30 31 31 30 29 28 27 29 29 26 24 23 21 19 18 16 14 16 15 13 14 13 12 13 11 10 10 11 12 13 13 13 14 12 10 9 9 9 6 4 4 5 5 3 3 3 3 3 2 2
14 16 19 19 20 21 19 14 11 10 10 9 11 12 8 8 9 11 14 13 13 17 18 17 15 14 15 15 15 16 16 16 16 16 17 17 19 24 26 28 29 29 28 29 30 30 31 31 31 31 30 29 29 28 29 30 28 25 24 22 20 18 17 15 15 15 14 14 14 13 12 11 11 12 12 13 14 14 15 14 12 10 8 8 7 5 6 7 6 5 4 3 4 5 5 3 2
16 19 19 17 17 18 17 14 11 11 10 9 12 13 8 8 8 10 12 13 14 16 14 13 14 15 15 15 16 16 13 13 16 17 16 16 20 26 28 28 29 30 29 29 30 29 30 31 31 32 31 30 29 29 29 29 28 26 24 23 21 19 18 16 16 16 15 15 15 13 12 13 13 13 13 14 15 15 15 14 13 11 9 8 7 5 6 6 5 4 5 5 4 5 5 3 3
18 19 17 15 15 14 14 13 11 10 9 11 14 15 12 9 9 10 10 12 14 15 13 14 18 19 17 15 16 16 12 11 13 16 16 16 21 26 28 28 30 30 30 30 30 30 30 32 32 32 32 31 30 30 30 29 29 27 25 24 22 20 20 18 16 17 17 17 16 16 15 15 15 15 15 15 15 15 15 13 11 11 10 9 6 5 5 5 7 8 8 6 5 4 3 4 4
18 15 13 12 11 11 11 10 10 10 9 12 15 17 16 11 9 10 13 15 17 16 16 20 24 22 18 15 16 16 13 12 12 13 14 14 16 20 23 25 28 30 31 30 31 32 31 32 33 33 33 32 30 30 30 29 29 28 26 25 24 22 21 19 17 16 18 19 18 17 18 16 16 16 17 17 15 15 15 12 9 9 10 9 6 7 8 7 7 10 11 7 6 6 4 4 3
17 15 12 11 9 8 9 8 8 10 10 13 17 19 16 12 11 13 15 17 19 18 17 19 22 22 17 15 16 15 15 16 14 12 12 13 13 15 18 22 27 30 32 32 31 32 31 32 35 34 33 33 31 30 31 30 28 28 27 26 25 24 22 21 19 18 19 20 19 19 20 18 17 17 17 18 17 17 16 14 12 10 11 11 9 9 8 8 8 9 9 7 8 8 6 5 4
17 16 12 11 10 9 10 9 9 11 11 13 18 17 13 11 11 15 18 18 17 18 19 18 17 20 19 18 18 17 18 17 14 12 13 13 14 15 18 22 26 29 33 33 32 32 31 31 34 35 33 33 33 31 31 30 29 28 28 27 26 26 24 22 21 20 20 21 20 20 20 19 19 18 18 17 17 19 18 16 15 14 13 12 13 11 8 10 12 9 8 9 10 10 8 8 7
16 14 12 12 11 9 9 9 9 10 10 12 17 14 10 9 8 14 19 19 17 17 18 17 14 15 17 18 19 19 19 17 13 13 14 14 17 17 19 22 25 28 33 34 32 32 32 31 33 35 33 33 34 32 32 31 30 29 28 27 27 27 26 23 22 20 21 22 21 21 21 21 20 19 19 18 18 20 20 17 15 16 15 14 13 13 11 11 13 13 10 10 11 9 9 9 8
12 11 12 13 13 10 9 10 11 11 9 10 12 9 7 9 8 9 14 17 18 17 16 16 14 15 15 16 18 19 18 17 15 15 16 17 18 18 20 24 25 28 32 34 34 33 32 31 33 34 34 34 34 34 33 32 31 29 29 28 28 27 27 25 23 22 22 23 23 23 22 22 22 20 21 21 21 21 20 18 17 17 17 16 15 16 15 14 14 14 13 11 10 9 9 9 9
9 12 15 15 16 15 10 11 13 13 11 9 8 9 9 10 9 10 12 14 16 16 17 18 16 18 17 15 16 18 18 17 16 16 17 18 18 18 22 28 29 29 33 35 35 34 33 32 33 34 34 34 35 34 33 33 32 31 30 30 29 28 28 26 24 24 24 24 24 24 23 22 22 22 22 23 24 23 21 21 19 18 18 18 18 18 17 16 16 15 14 13 12 10 10 10 10
10 11 15 15 17 16 10 8 10 12 11 8 11 14 12 9 8 11 16 17 15 16 17 18 16 19 19 16 15 20 21 18 17 18 18 18 18 17 22 30 32 32 33 35 35 34 34 33 33 35 35 35 35 34 33 33 33 32 31 31 30 28 28 27 26 26 26 25 25 25 24 23 24 24 24 24 25 24 23 22 21 20 21 20 19 19 19 18 17 16 15 14 13 12 11 10 11
19 13 12 12 13 13 9 7 10 12 11 8 13 15 12 11 9 10 16 17 16 17 16 16 17 17 19 17 16 22 22 18 18 17 15 16 17 17 22 29 33 33 33 34 35 35 34 33 33 34 35 35 34 33 33 33 33 32 32 32 31 29 29 28 28 29 29 28 27 27 27 27 26 26 27 27 27 25 24 23 22 22 22 21 21 20 19 19 18 17 16 15 15 14 13 12 11
22 17 13 11 11 11 10 9 10 10 9 9 13 13 10 10 10 12 15 15 18 17 12 13 16 15 15 13 14 21 21 18 17 16 14 16 18 21 26 30 33 33 31 33 35 36 35 34 33 33 34 34 34 34 34 33 33 32 31 32 32 31 31 30 30 31 31 31 31 30 30 30 30 29 29 29 29 27 26 26 25 24 23 23 23 21 20 21 20 19 18 17 16 15 15 14 13
16 15 15 13 10 9 10 11 10 10 9 9 11 11 9 8 9 14 14 11 13 13 8 9 14 16 16 12 10 19 21 18 17 16 16 18 18 20 25 28 29 29 30 32 34 36 37 36 34 34 34 35 35 34 34 34 33 32 32 33 33 32 32 32 31 32 33 33 33 33 32 31 31 31 31 31 30 28 28 27 26 25 25 25 25 24 22 22 22 21 20 18 16 15 15 15 15
14 14 15 15 12 10 11 11 11 11 10 9 10 9 9 8 8 10 11 9 11 13 13 12 14 17 17 13 13 17 19 18 18 17 17 18 17 17 20 23 26 27 29 33 34 35 36 36 35 35 35 35 36 35 35 35 34 33 33 34 34 33 33 33 33 34 35 35 34 35 34 33 32 33 33 31 30 28 28 28 28 27 27 26 25 25 24 23 22 22 21 19 17 16 15 14 14
Wind_Direction
164 166 162 164 180 168 139 211 256 205 237 270 311 62 100 87 92 112 106 109 87 74 64 70 72 73 95 94 88 69 45 49 57 84 98 122 128 127 129 131 130 125 125 131 134 135 136 135 137 140 137 138 140 138 137 135 133 133 132 130 129 128 128 126 123 120 117 116 113 110 108 105 103 99 96 95 94 92 91 92 89 86 84 82 81 80 78 75 72 72 70 71 73 68 61 54 52
163 166 165 171 175 130 117 279 282 267 253 357 359 356 85 100 100 92 88 89 84 89 87 87 86 87 103 103 93 75 59 65 81 86 104 124 122 125 130 130 129 125 127 130 132 133 134 138 139 141 143 142 142 140 138 137 135 133 133 131 130 130 131 129 128 124 120 118 116 112 108 104 101 97 95 96 97 95 93 91 88 86 83 84 84 83 79 73 68 68 68 67 68 68 65 58 53
170 167 162 170 156 58 301 286 271 267 303 42 10 309 62 108 105 96 92 93 102 108 97 93 88 89 107 101 87 85 87 85 95 101 116 127 121 130 133 129 128 125 127 127 128 129 133 140 141 141 143 141 141 142 138 136 135 133 133 132 131 131 133 131 129 125 120 118 116 113 108 105 101 99 99 97 95 93 92 92 91 88 83 80 80 83 82 75 68 62 64 65 64 65 68 65 58
171 164 158 179 178 37 262 256 249 262 81 46 95 183 142 98 101 104 102 102 108 109 99 95 79 71 91 93 93 95 103 100 104 112 121 127 127 135 133 129 130 127 128 128 129 130 133 138 139 138 140 141 140 139 138 136 134 133 133 133 133 133 132 130 127 123 119 117 116 113 110 106 103 105 105 96 92 91 93 94 92 87 80 72 67 74 78 74 70 61 58 59 61 60 61 64 65
174 162 160 183 39 99 256 258 233 237 152 186 218 167 122 101 107 111 113 111 106 108 106 100 84 76 79 84 96 101 106 111 113 113 117 125 129 132 131 133 135 133 131 131 133 133 134 136 137 137 138 140 137 136 139 137 135 135 135 135 134 133 131 128 125 122 121 120 119 116 112 107 108 112 105 95 93 94 95 91 86 79 71 65 62 66 68 69 68 56 50 51 58 53 44 53 65
210 200 175 180 34 349 279 266 251 204 147 155 212 216 116 107 115 117 117 112 109 111 104 99 102 97 81 72 74 92 114 118 115 117 122 130 134 132 131 132 131 132 131 131 134 135 135 135 136 138 137 136 136 138 140 139 141 141 139 139 136 134 131 128 126 125 125 124 120 116 113 110 113 112 103 97 91 90 90 84 79 72 65 62 62 61 58 57 55 47 39 42 52 49 41 38 48
216 219 184 195 269 292 261 255 259 108 134 143 176 191 118 114 122 118 119 114 113 107 103 108 113 104 93 88 74 84 108 116 118 123 128 132 135 135 135 132 129 131 132 133 133 136 137 136 136 138 137 137 139 140 141 143 145 146 145 143 139 138 135 132 131 129 128 125 120 118 113 111 114 112 105 97 88 86 86 82 74 68 64 59 57 57 52 51 54 54 44 38 42 44 42 33 25
188 216 191 240 261 233 258 261 266 73 124 134 144 144 113 126 129 125 130 119 115 111 112 116 109 97 93 97 86 88 101 111 118 123 129 133 135 137 139 136 134 135 136 135 134 138 139 138 138 138 138 140 142 141 142 144 144 145 144 143 142 140 138 138 137 135 132 129 125 120 114 113 116 114 107 94 87 86 87 79 67 62 56 52 52 50 47 52 53 49 51 40 29 34 37 29 19
138 209 157 313 281 266 263 265 106 87 106 112 115 114 112 130 127 130 128 113 118 121 121 118 105 100 102 97 93 98 103 112 120 125 130 135 137 138 139 137 137 137 136 136 136 139 140 141 141 139 140 141 141 140 141 142 141 142 140 141 142 139 138 141 143 141 136 132 128 123 118 118 119 117 109 93 87 87 86 75 61 54 45 43 44 41 37 44 42 35 46 39 29 44 36 23 22
104 197 228 296 280 273 263 243 100 101 105 109 117 122 125 132 129 126 118 117 124 118 109 106 103 107 109 101 101 112 115 123 126 128 133 136 139 139 139 137 137 136 136 137 138 140 141 142 143 142 141 140 141 139 137 139 141 141 140 141 141 140 140 143 146 144 139 135 132 128 126 125 125 121 108 90 86 89 83 71 58 44 38 37 35 37 33 34 37 37 49 51 53 64 55 42 45
258 211 242 285 268 263 254 129 105 102 105 111 115 124 131 139 140 121 117 123 119 110 105 103 106 109 105 97 103 122 126 131 132 133 136 137 139 138 137 136 137 137 137 138 139 141 142 142 143 143 142 142 143 140 137 139 142 140 138 140 144 144 142 144 147 147 144 140 137 135 132 132 134 126 106 90 85 87 81 68 52 38 36 35 34 37 35 40 44 45 52 60 71 80 78 70 65
281 280 318 286 281 285 282 100 108 113 118 122 124 125 122 135 145 130 123 126 122 115 115 116 120 115 108 106 116 133 134 136 136 136 137 138 139 137 135 137 139 138 138 138 140 142 143 144 144 145 144 143 143 142 142 142 144 144 140 142 148 147 142 143 146 151 149 142 140 140 139 142 146 131 101 92 80 65 65 58 45 36 33 32 36 35 35 45 52 53 57 66 78 83 79 72 67
274 296 342 284 288 292 281 92 109 135 133 115 108 120 126 139 141 129 127 130 123 115 116 120 125 120 112 115 128 140 141 139 137 136 140 142 142 139 136 139 140 139 139 140 141 143 144 145 145 146 146 145 145 145 145 145 147 148 147 147 152 149 142 144 146 149 148 143 144 145 147 151 153 134 107 100 77 51 43 43 43 35 27 26 35 36 36 47 56 64 71 76 80 80 77 69 63
218 263 302 280 288 280 275 88 166 162 113 101 114 148 150 139 120 123 138 127 114 118 126 127 127 116 113 122 137 146 142 140 138 139 145 144 141 140 138 139 139 138 140 141 142 144 146 146 146 149 149 147 148 148 148 149 149 150 153 154 156 151 146 147 148 148 147 148 151 152 156 157 155 139 126 122 94 54 39 39 40 32 19 19 32 42 44 51 64 79 85 83 80 79 77 70 62
198 227 267 278 288 278 295 350 224 133 102 118 140 162 130 119 128 147 144 111 110 128 130 131 136 126 136 144 145 150 143 141 141 142 147 142 138 138 138 139 138 137 139 141 143 146 149 149 151 154 152 153 153 152 154 153 153 154 157 158 157 154 152 153 153 152 152 156 161 161 163 163 163 159 151 147 118 46 52 45 22 15 4 8 27 45 54 62 77 95 96 85 81 79 77 72 63
190 161 274 277 283 283 59 326 307 113 120 122 129 132 114 125 142 145 119 104 119 135 134 146 150 143 155 149 140 146 143 144 145 142 142 139 136 134 131 134 134 135 138 141 145 149 152 152 154 157 156 159 158 156 158 156 157 158 157 156 156 158 161 163 160 158 161 164 167 166 168 168 179 178 172 184 171 67 80 61 335 347 350 359 22 48 65 76 90 101 98 89 84 81 78 70 61
158 145 270 278 274 279 118 8 331 101 118 121 143 143 128 136 128 112 108 115 133 137 140 155 148 142 144 138 139 142 141 145 146 139 138 139 139 135 130 132 134 135 139 143 148 151 154 154 155 158 160 163 161 160 162 160 161 159 157 157 159 163 167 171 165 164 170 171 171 173 170 169 194 202 183 194 233 281 70 349 323 338 352 3 25 61 82 91 102 102 94 92 91 87 78 64 57
152 178 247 261 261 275 105 128 0 103 119 140 162 145 134 136 114 116 127 128 142 138 135 136 131 134 128 132 143 143 144 146 146 143 144 145 145 141 138 141 142 142 145 146 150 153 153 155 157 160 162 164 163 163 165 166 165 162 162 162 164 168 170 173 169 168 176 177 176 178 173 177 202 213 187 183 229 255 261 308 326 343 4 16 31 73 96 101 106 97 87 88 90 86 69 52 47
185 218 243 263 269 300 356 146 129 131 144 152 163 148 140 139 130 159 154 134 147 140 133 134 129 133 131 137 145 145 149 149 149 151 151 150 149 148 147 149 149 148 150 149 153 155 154 157 158 159 162 165 165 165 166 171 169 166 168 167 169 172 173 175 172 172 182 188 185 186 185 185 202 216 208 206 230 252 273 295 289 326 359 18 22 70 99 109 108 95 88 86 80 78 66 46 16
197 205 231 259 258 287 294 191 136 154 153 153 168 153 136 141 150 179 154 136 161 151 141 144 135 140 140 141 146 149 154 154 154 156 154 151 151 152 151 152 151 150 153 152 154 156 156 158 159 160 164 166 166 165 166 171 170 170 172 171 174 175 177 178 177 179 189 199 192 193 199 191 203 220 224 218 228 251 276 281 272 297 334 352 331 326 67 126 119 103 97 88 79 65 56 62 2
195 205 211 246 261 276 268 232 151 148 159 157 162 155 139 145 166 176 151 146 172 156 150 148 139 146 147 146 152 155 157 156 157 158 156 155 155 155 154 155 152 151 155 154 153 157 158 159 161 161 165 167 167 167 167 170 171 173 174 175 178 179 183 182 185 188 194 206 201 200 202 194 204 217 226 222 222 246 259 262 264 287 305 306 278 281 274 243 184 137 153 103 90 33 356 36 24
190 219 228 256 301 283 255 218 158 147 161 158 159 175 146 148 181 169 155 170 172 150 153 146 143 153 153 152 154 156 157 159 160 160 161 159 158 157 155 158 155 153 158 157 155 159 160 160 161 162 166 168 167 169 169 170 172 174 176 178 181 183 188 187 192 195 196 207 206 204 202 203 207 207 223 237 222 247 265 264 275 260 269 287 272 272 269 252 234 191 182 178 81 19 346 6 14
199 215 227 232 242 269 264 204 162 165 171 165 164 167 142 161 179 152 166 200 156 142 149 145 146 154 154 154 156 158 159 161 163 162 165 161 160 161 159 161 158 158 162 160 157 160 162 162 163 164 167 170 169 170 169 171 174 176 179 181 185 187 189 191 196 198 200 206 203 207 210 211 212 204 219 237 224 248 269 264 287 260 252 289 283 280 281 265 260 229 152 56 354 8 2 7 11
205 192 202 211 201 242 254 204 171 182 178 164 164 158 160 184 159 144 173 192 127 133 140 143 145 151 154 157 160 163 160 163 166 165 167 164 163 164 162 163 160 163 166 162 160 162 165 165 166 166 168 171 171 171 170 173 176 178 183 184 186 191 191 193 199 199 205 209 200 208 219 218 217 197 198 212 222 250 260 259 299 263 248 299 300 295 287 275 293 300 334 344 356 7 5 6 12
209 190 197 211 201 227 241 226 192 172 171 162 170 173 177 188 156 165 167 125 126 130 135 142 144 152 157 162 166 165 164 167 166 166 169 165 165 164 164 165 162 166 166 163 163 164 168 167 168 169 171 173 173 174 173 174 180 183 184 183 186 193 194 194 199 202 203 204 198 204 216 226 230 193 184 211 223 223 224 276 312 245 241 294 320 311 292 261 330 336 334 347 5 0 359 2 15
232 212 199 221 233 230 235 244 206 159 167 174 178 178 179 178 161 182 156 134 142 131 137 146 149 158 160 165 169 165 168 170 165 166 170 167 167 166 167 168 165 168 166 164 164 165 169 169 171 173 173 175 175 175 176 178 182 187 185 184 192 193 196 199 201 204 197 196 202 204 205 215 230 226 250 250 231 241 254 280 298 254 244 290 300 296 297 279 286 310 328 1 4 357 1 1 13
252 239 202 214 241 237 245 254 222 166 168 171 186 182 174 170 173 194 144 138 154 137 143 149 153 163 161 167 169 165 172 172 166 166 170 170 170 170 171 171 168 168 168 168 167 167 171 171 174 175 174 176 177 178 181 181 181 187 188 187 195 194 199 205 206 210 201 196 196 194 200 209 221 234 265 252 242 262 268 271 281 273 280 312 343 307 308 315 295 293 314 335 339 11 14 357 0
245 239 205 209 237 238 247 252 222 184 171 172 190 183 171 172 187 194 137 145 171 147 146 152 159 166 162 168 167 165 175 174 169 169 173 174 174 174 174 174 171 169 171 175 170 168 172 175 177 176 175 177 180 183 183 183 183 188 192 191 196 198 202 205 210 216 209 210 209 205 211 213 212 223 247 252 253 265 270 280 283 278 287 293 321 323 329 333 312 292 289 293 322 39 21 347 347
261 254 221 204 223 230 240 247 217 178 179 178 186 181 179 182 190 175 141 157 171 149 150 155 161 166 163 169 166 167 179 177 172 173 177 177 178 178 176 177 174 171 174 178 173 171 175 177 178 178 178 179 182 186 184 184 186 189 194 196 199 199 201 206 213 217 213 218 230 233 225 222 221 220 241 249 248 257 267 282 282 284 298 298 306 318 338 336 318 301 294 310 359 24 355 337 344
264 268 260 221 220 218 224 240 216 185 180 176 186 190 186 189 189 164 148 165 168 153 156 159 162 165 166 171 167 172 181 178 176 176 179 179 180 180 178 179 178 174 175 179 177 176 178 178 178 179 181 182 184 189 187 186 188 190 194 198 202 200 200 206 211 217 214 212 229 239 234 237 239 227 238 248 242 247 261 270 273 283 291 294 318 317 332 349 326 314 321 336 352 351 335 336 327
246 252 256 247 245 221 207 220 210 188 170 173 193 202 191 190 178 160 153 168 172 161 161 162 165 164 167 171 168 176 182 182 180 178 179 179 181 182 181 180 180 179 176 179 180 180 181 180 181 181 182 185 186 189 190 189 190 192 195 199 203 201 202 207 210 215 212 208 222 236 239 246 249 242 246 249 237 238 254 266 274 272 254 250 296 307 314 322 310 316 332 337 338 347 351 333 317
237 238 232 225 240 235 202 206 206 190 163 180 205 205 190 196 181 166 159 171 179 171 166 167 170 168 170 171 170 179 183 185 183 181 182 181 183 185 183 182 182 183 180 178 180 182 183 183 184 183 183 186 187 190 192 191 192 194 198 201 204 205 206 211 213 216 215 211 213 225 238 244 247 245 243 240 233 236 246 262 282 271 232 254 288 305 310 284 319 345 341 341 352 351 336 318 312
222 227 237 225 218 212 196 199 196 190 172 185 213 214 173 210 227 181 162 175 185 177 171 174 176 172 172 171 172 180 181 186 187 184 184 184 185 186 184 184 183 185 184 180 180 183 185 184 187 188 187 189 190 191 193 194 195 197 201 203 206 208 209 213 214 217 220 216 207 217 234 236 238 237 230 228 229 232 236 252 270 257 247 284 301 310 292 282 355 351 325 344 354 329 319 316 312
222 216 233 243 234 212 188 196 188 189 191 187 206 220 171 197 233 185 165 180 185 182 177 178 183 175 172 174 176 179 180 186 190 187 186 185 187 187 186 187 185 186 187 184 181 183 186 185 188 192 192 192 193 193 194 196 197 199 203 206 208 208 211 214 214 216 220 217 207 215 227 226 226 227 222 222 226 227 230 247 259 259 263 271 290 301 279 307 2 327 315 350 336 319 319 317 316
231 216 215 238 245 225 190 186 185 188 198 192 196 213 169 173 230 183 170 184 185 187 183 179 186 178 173 178 179 180 181 187 191 190 189 186 186 188 188 187 185 187 189 187 184 183 187 188 189 194 196 194 195 195 196 197 200 203 204 208 210 211 214 216 217 219 219 217 212 214 216 210 209 214 217 217 220 222 223 233 249 259 247 242 254 286 284 304 338 334 347 339 334 326 316 312 313
240 232 219 223 232 226 199 192 192 190 200 198 193 208 164 153 229 209 178 187 189 189 186 182 187 181 177 182 185 183 182 187 190 191 191 187 187 189 187 185 185 188 188 187 187 184 186 190 191 194 197 196 193 192 196 198 200 204 204 207 211 212 215 218 219 221 220 218 214 213 211 210 212 216 216 214 218 227 230 222 224 242 238 242 252 214 177 186 159 130 322 338 354 340 312 292 286
245 247 236 235 234 225 214 209 199 191 201 200 199 211 170 151 210 212 186 193 193 191 192 187 186 185 182 184 190 187 185 187 185 189 192 189 189 189 187 186 185 187 186 186 189 187 187 190 192 193 195 197 193 190 194 198 200 201 202 206 209 209 212 215 217 219 220 221 218 215 215 216 217 219 217 211 214 226 234 227 225 230 224 231 230 167 174 184 166 177 220 1 2 314 297 274 231
241 249 250 248 240 220 228 226 196 183 199 198 200 213 179 166 200 201 191 203 199 194 195 191 190 189 185 186 190 188 187 187 183 186 191 190 190 190 189 188 187 188 187 187 189 189 189 192 193 193 192 195 196 194 194 199 201 201 202 205 208 208 207 210 216 217 218 223 223 216 215 218 215 215 217 215 216 220 225 224 222 221 221 217 181 162 178 173 169 198 199 260 260 244 275 296 95
237 244 253 256 247 223 233 234 185 174 200 200 193 212 195 178 193 199 199 203 202 203 201 196 193 189 185 188 189 188 187 186 183 183 188 191 190 189 189 189 190 191 190 190 191 189 190 193 194 193 192 193 197 197 195 198 202 202 203 203 205 206 205 209 215 216 217 220 220 211 208 215 215 214 216 216 215 214 213 212 208 207 214 195 161 167 195 182 182 199 198 204 183 247 255 230 145
238 240 245 252 255 244 231 224 185 172 195 216 191 204 212 185 183 201 219 211 197 205 209 202 196 191 189 190 189 190 189 185 184 183 186 190 190 190 189 190 192 192 192 192 191 191 191 193 194 194 194 194 195 197 196 197 199 201 203 202 203 205 205 213 216 212 212 213 213 210 212 217 216 212 213 215 212 209 208 203 194 184 176 168 164 179 202 194 188 193 196 196 199 289 268 182 177
233 238 240 245 250 251 238 230 207 175 184 219 199 196 219 208 190 189 221 228 204 200 211 212 203 196 195 192 189 190 191 188 185 185 186 187 190 190 189 190 193 193 193 193 192 193 193 193 194 194 195 194 194 196 196 195 196 199 201 202 205 205 203 211 213 203 202 209 207 210 217 217 212 208 209 213 209 202 197 179 166 164 161 164 175 183 187 186 173 172 180 196 236 301 321 169 152
227 231 239 245 248 248 235 227 226 194 192 210 206 215 218 214 215 198 194 211 209 200 209 218 212 201 199 193 188 190 192 190 187 187 186 188 190 190 188 190 193 195 195 195 194 194 194 193 193 194 195 195 195 195 194 193 194 195 196 197 200 202 198 199 203 197 195 202 203 208 212 209 208 208 205 203 198 191 182 162 155 160 165 168 173 173 168 171 157 144 137 142 209 265 316 309 339
227 222 230 241 249 253 239 227 230 217 207 205 205 231 231 211 225 211 188 197 212 208 206 215 214 202 200 201 195 190 191 191 191 191 190 189 190 190 190 190 194 197 196 195 195 195 194 192 192 193 194 195 194 194 194 192 193 194 195 196 197 199 196 193 200 199 196 202 205 204 199 197 203 200 193 188 184 183 174 165 161 163 172 165 156 156 148 155 150 128 107 135 176 199 232 290 339
231 222 224 230 240 251 247 234 236 228 212 208 205 218 239 232 225 213 195 197 217 215 209 214 214 200 197 204 203 193 189 192 193 194 193 190 189 192 192 191 194 198 196 194 195 194 193 192 191 192 193 194 194 193 193 192 193 193 194 195 195 197 196 193 198 201 205 207 198 183 178 184 191 180 179 181 176 174 169 167 166 164 171 157 143 154 160 150 148 140 125 142 183 194 196 242 344
230 229 231 228 227 243 254 246 243 238 225 218 205 205 232 242 221 214 204 199 218 222 214 211 209 203 198 200 206 202 193 190 191 196 197 191 188 192 193 191 195 199 198 195 195 194 192 191 190 191 193 193 193 193 192 192 193 192 193 194 195 196 195 193 194 196 204 197 175 164 168 176 175 166 174 177 169 169 167 166 165 162 165 152 143 164 162 147 140 144 157 170 184 177 167 184 218
228 232 238 239 228 229 241 245 252 253 243 233 212 201 222 247 226 219 214 205 211 217 214 212 211 212 208 199 202 206 196 188 190 195 196 190 186 191 194 194 195 200 201 196 195 194 190 189 190 190 192 192 192 193 191 191 192 191 192 193 194 194 193 196 193 188 190 179 162 163 167 164 162 163 171 171 167 168 167 168 170 164 159 157 159 157 145 153 168 167 172 185 187 167 164 184 206
226 230 235 242 241 234 229 227 238 253 251 242 229 210 206 231 234 224 223 217 213 209 201 207 214 217 212 199 198 204 198 193 193 192 192 187 183 187 193 196 195 198 202 197 194 195 191 189 190 190 192 191 191 192 191 191 191 191 192 193 193 191 190 196 194 185 182 172 163 167 167 165 166 167 168 167 169 170 167 174 175 159 151 157 169 168 161 186 197 177 170 182 186 180 205 212 201
224 226 229 233 239 244 241 229 224 235 245 244 241 229 217 222 228 222 223 219 218 217 205 204 211 211 204 192 196 204 201 197 194 190 190 180 174 182 193 199 196 195 201 200 195 195 193 190 189 190 191 191 190 190 191 191 190 191 193 193 193 191 190 194 193 188 180 169 168 170 169 172 174 172 170 167 171 172 168 171 168 150 148 154 165 176 185 197 180 162 163 172 176 182 215 223 213
221 220 222 227 227 229 237 241 233 232 236 232 232 232 231 235 229 221 227 222 216 220 219 214 209 199 192 192 196 200 198 196 190 184 184 175 171 182 193 202 199 193 198 201 198 196 193 190 189 189 190 190 190 190 190 191 190 192 194 193 192 192 192 192 190 190 179 168 170 173 170 174 175 175 173 169 173 177 172 172 173 167 165 169 176 177 185 195 179 154 155 167 174 180 196 201 215
218 215 210 217 222 219 222 231 239 235 233 235 238 236 237 248 231 214 225 230 220 218 220 221 210 190 187 196 199 197 196 196 190 183 182 176 178 187 194 200 198 193 195 199 200 198 194 190 187 188 189 189 189 189 188 190 192 192 193 193 191 191 193 191 189 189 177 168 173 174 172 174 175 177 176 174 180 181 176 177 181 179 176 182 191 188 183 192 190 174 161 175 183 183 187 191 203
217 212 210 220 224 223 223 225 233 238 238 241 244 241 234 243 228 201 212 224 223 220 218 218 209 187 185 197 201 197 193 192 190 191 192 186 186 189 194 200 201 194 193 197 201 198 195 191 187 186 188 188 188 188 188 190 192 192 191 192 191 191 191 189 189 186 176 173 176 177 176 177 178 179 179 178 182 181 179 181 181 179 181 186 193 192 188 188 190 186 179 187 193 185 182 191 200
213 207 215 224 224 224 234 238 238 238 237 237 241 245 235 237 237 207 207 217 218 218 219 215 199 183 193 209 205 192 186 186 187 193 198 196 194 192 191 199 204 195 191 196 200 198 195 191 187 186 187 188 187 188 188 189 190 191 190 191 191 190 189 187 187 183 177 177 178 179 180 179 180 180 181 184 185 185 188 187 181 179 185 188 188 193 194 191 190 190 190 194 196 192 187 197 211
205 208 218 222 222 225 235 246 246 240 236 235 235 244 239 231 236 229 220 220 216 214 219 217 197 184 199 215 204 186 180 182 185 191 197 197 197 194 191 197 203 196 190 195 198 197 195 191 186 186 186 187 188 188 188 188 188 190 190 191 190 188 186 185 184 182 180 180 180 181 180 179 182 182 183 188 191 193 194 190 186 184 186 189 190 193 194 193 194 193 192 194 196 201 203 198 207
217 211 210 213 222 226 229 238 239 235 236 239 234 239 241 232 230 221 217 219 216 210 218 222 205 187 198 213 195 178 178 181 186 192 193 194 194 190 188 196 203 200 194 194 195 195 196 192 187 185 185 186 187 187 187 186 188 189 191 191 190 187 185 184 184 184 183 183 181 182 181 182 186 186 186 190 194 197 195 191 191 188 187 189 193 194 194 194 196 193 191 196 199 208 213 203 203
230 233 209 204 217 219 215 225 236 234 232 237 239 239 239 238 237 218 213 219 215 203 202 218 216 195 198 207 181 169 176 180 184 191 189 189 194 192 192 200 205 203 195 191 192 193 195 194 189 187 186 185 185 186 187 187 187 188 190 191 189 187 185 184 185 185 185 185 184 183 184 187 191 191 191 194 195 194 194 192 191 188 188 191 192 194 195 197 199 195 192 197 202 208 213 213 215
225 241 229 213 220 219 213 220 234 239 234 232 236 237 230 232 243 237 223 219 217 209 194 206 218 213 214 213 172 162 172 177 182 191 188 187 193 194 197 203 205 201 192 190 192 194 196 195 191 189 187 185 186 187 188 187 187 188 189 189 188 187 186 186 186 185 186 187 186 186 188 192 194 194 196 198 196 193 192 192 190 189 190 192 193 194 196 197 199 199 197 199 205 210 214 219 224
210 229 231 221 217 219 222 224 225 229 235 235 235 239 234 223 233 241 237 219 202 206 219 213 208 218 231 231 184 166 170 175 181 185 182 183 189 194 201 204 203 200 195 193 195 195 196 196 193 191 188 186 187 189 188 187 187 188 188 187 187 188 188 188 188 186 187 189 190 190 192 195 197 197 199 200 198 195 193 191 190 190 191 192 193 194 194 196 198 200 200 201 205 211 214 220 225
205 212 225 226 218 212 219 225 224 222 228 236 240 244 238 227 228 236 244 233 186 189 226 229 206 213 225 228 205 175 167 172 176 176 178 181 183 190 197 196 196 200 199 195 195 195 195 196 194 192 190 188 189 189 188 187 186 187 188 186 187 188 189 190 189 189 190 191 192 194 195 196 198 201 202 202 199 196 193 192 190 190 192 193 194 194 193 194 198 201 201 201 205 211 216 222 226